IBE04KC LEMD-LEVX

Flight info

Callsign IBE04KC
Flight time 0h 50m
Altitude 29000
Route ZMR N733 DESAT/N0444F300 DCT BARKO
Aircraft A319/M-SDE3FGHIRWY/LB1

Departure

Time 2026-04-16 14:51
Airport Adolfo Suárez Madrid–Barajas Airport (LEMD)

Arrival

Time 2026-04-16 15:41
Airport Vigo Airport (LEVX)
Time Latitude Longitude Altitude Speed Heading
2026-04-16 14:00 40.49525 -3.59157 2022 ft 0 kts 90°
2026-04-16 14:39 40.49525 -3.59184 2034 ft 4 kts 85°
2026-04-16 14:40 40.49521 -3.59219 2033 ft 4 kts 74°
2026-04-16 14:40 40.49512 -3.59248 2032 ft 1 kts 59°
2026-04-16 14:40 40.49517 -3.59236 2031 ft 4 kts 61°
2026-04-16 14:40 40.49536 -3.59218 2028 ft 4 kts 13°
2026-04-16 14:41 40.49552 -3.59218 2022 ft 0 kts 360°
2026-04-16 14:42 40.49556 -3.59218 2022 ft 1 kts 360°
2026-04-16 14:42 40.49558 -3.59218 2022 ft 0 kts 360°
2026-04-16 14:43 40.49564 -3.59218 2022 ft 1 kts 360°
2026-04-16 14:44 40.49583 -3.59218 2026 ft 5 kts 360°
2026-04-16 14:44 40.49633 -3.59218 2032 ft 9 kts 360°
2026-04-16 14:44 40.49701 -3.59219 2022 ft 10 kts 360°
2026-04-16 14:44 40.49744 -3.59188 2025 ft 7 kts 76°
2026-04-16 14:45 40.49744 -3.59123 2022 ft 7 kts 90°
2026-04-16 14:45 40.49745 -3.59045 2022 ft 10 kts 90°
2026-04-16 14:45 40.49745 -3.58941 2033 ft 13 kts 90°
2026-04-16 14:45 40.49741 -3.58814 2027 ft 15 kts 106°
2026-04-16 14:46 40.49733 -3.58681 2022 ft 12 kts 90°
2026-04-16 14:46 40.49681 -3.58636 2022 ft 10 kts 179°
2026-04-16 14:46 40.49606 -3.58636 2027 ft 11 kts 180°
2026-04-16 14:46 40.49520 -3.58635 2022 ft 14 kts 180°
2026-04-16 14:47 40.49416 -3.58635 2026 ft 16 kts 180°
2026-04-16 14:47 40.49302 -3.58634 2026 ft 16 kts 180°
2026-04-16 14:47 40.49240 -3.58600 2028 ft 10 kts 95°
2026-04-16 14:47 40.49241 -3.58497 2019 ft 13 kts 90°
2026-04-16 14:48 40.49242 -3.58351 2014 ft 19 kts 89°
2026-04-16 14:48 40.49242 -3.58160 2007 ft 23 kts 90°
2026-04-16 14:48 40.49243 -3.57934 1999 ft 26 kts 90°
2026-04-16 14:48 40.49244 -3.57680 1991 ft 26 kts 89°
2026-04-16 14:49 40.49260 -3.57579 1987 ft 10 kts 63°
2026-04-16 14:49 40.49280 -3.57484 1984 ft 12 kts 92°
2026-04-16 14:49 40.49310 -3.57445 1984 ft 0 kts 358°
2026-04-16 14:50 40.49413 -3.57449 1984 ft 47 kts 358°
2026-04-16 14:50 40.49981 -3.57457 1987 ft 113 kts 359°
2026-04-16 14:50 40.50959 -3.57467 1996 ft 165 kts 360°
2026-04-16 14:50 40.52213 -3.57475 2303 ft 182 kts 358°
2026-04-16 14:51 40.53468 -3.57487 2967 ft 180 kts 356°
2026-04-16 14:51 40.54722 -3.57524 3597 ft 181 kts 354°
2026-04-16 14:51 40.55889 -3.58073 4113 ft 179 kts 317°
2026-04-16 14:51 40.56616 -3.59356 4665 ft 175 kts 289°
2026-04-16 14:53 40.64970 -3.67597 9049 ft 247 kts 349°
2026-04-16 14:53 40.66775 -3.67536 9532 ft 270 kts
2026-04-16 14:54 40.68707 -3.67239 10075 ft 287 kts
2026-04-16 14:54 40.70777 -3.66930 10492 ft 308 kts
2026-04-16 14:54 40.72880 -3.66614 11528 ft 301 kts
2026-04-16 14:54 40.74933 -3.66485 12447 ft 299 kts 352°
2026-04-16 14:55 40.76983 -3.67132 12929 ft 313 kts 334°
2026-04-16 14:55 40.78850 -3.68729 13223 ft 330 kts 314°
2026-04-16 14:55 40.80247 -3.71153 13875 ft 335 kts 298°
2026-04-16 14:55 40.81374 -3.73865 14566 ft 339 kts 297°
2026-04-16 14:56 40.82520 -3.76604 15246 ft 342 kts 297°
2026-04-16 14:56 40.83678 -3.79361 15927 ft 345 kts 298°
2026-04-16 14:56 40.84849 -3.82147 16640 ft 349 kts 297°
2026-04-16 14:56 40.86036 -3.84975 17273 ft 354 kts 297°
2026-04-16 14:57 40.87234 -3.87841 17957 ft 358 kts 297°
2026-04-16 14:57 40.88445 -3.90743 18617 ft 362 kts 297°
2026-04-16 14:57 40.89665 -3.93673 19190 ft 366 kts 297°
2026-04-16 14:57 40.90895 -3.96635 19787 ft 369 kts 297°
2026-04-16 14:58 40.92139 -3.99627 20406 ft 373 kts 297°
2026-04-16 14:58 40.94658 -4.05688 21622 ft 380 kts 297°
2026-04-16 14:58 40.95944 -4.08758 22212 ft 383 kts 298°
2026-04-16 14:59 40.97292 -4.11822 22802 ft 387 kts 299°
2026-04-16 14:59 40.98689 -4.14882 23381 ft 391 kts 300°
2026-04-16 14:59 41.00120 -4.17963 23917 ft 394 kts 300°
2026-04-16 14:59 41.01567 -4.21067 24387 ft 397 kts 300°
2026-04-16 15:00 41.03019 -4.24192 24873 ft 400 kts 300°
2026-04-16 15:00 41.04465 -4.27344 25350 ft 402 kts 300°
2026-04-16 15:00 41.05906 -4.30521 25840 ft 404 kts 300°
2026-04-16 15:00 41.06863 -4.32644 26161 ft 405 kts 300°
2026-04-16 15:01 41.08304 -4.35854 26629 ft 407 kts 300°
2026-04-16 15:01 41.09755 -4.39088 27095 ft 409 kts 300°
2026-04-16 15:01 41.11214 -4.42345 27561 ft 411 kts 300°
2026-04-16 15:01 41.12683 -4.45615 28030 ft 414 kts 300°
2026-04-16 15:02 41.14166 -4.48907 28466 ft 416 kts 300°
2026-04-16 15:02 41.15650 -4.52206 28701 ft 417 kts 300°
2026-04-16 15:02 41.17138 -4.55519 28834 ft 417 kts 300°
2026-04-16 15:02 41.18620 -4.58825 28971 ft 418 kts 300°
2026-04-16 15:03 41.20107 -4.62151 29137 ft 419 kts 300°
2026-04-16 15:03 41.21578 -4.65443 29187 ft 407 kts 300°
2026-04-16 15:03 41.23004 -4.68635 29177 ft 398 kts 300°
2026-04-16 15:04 41.25808 -4.74923 29181 ft 394 kts 300°
2026-04-16 15:04 41.28594 -4.81191 29179 ft 393 kts 300°
2026-04-16 15:05 41.31365 -4.87453 29177 ft 393 kts 300°
2026-04-16 15:05 41.34141 -4.93716 29187 ft 392 kts 300°
2026-04-16 15:06 41.36892 -4.99936 29181 ft 392 kts 299°
2026-04-16 15:06 41.39657 -5.06204 29165 ft 392 kts 299°
2026-04-16 15:07 41.42415 -5.12464 29167 ft 392 kts 299°
2026-04-16 15:07 41.45167 -5.18735 29176 ft 392 kts 299°
2026-04-16 15:08 41.47926 -5.25016 29164 ft 392 kts 299°
2026-04-16 15:08 41.50671 -5.31295 29166 ft 391 kts 299°
2026-04-16 15:09 41.53402 -5.37569 29159 ft 391 kts 298°
2026-04-16 15:09 41.56140 -5.43845 29176 ft 391 kts 298°
2026-04-16 15:10 41.58878 -5.50122 29183 ft 391 kts 298°
2026-04-16 15:10 41.61605 -5.56416 29172 ft 391 kts 298°
2026-04-16 15:11 41.64332 -5.62716 29177 ft 391 kts 298°
2026-04-16 15:11 41.67037 -5.68964 29172 ft 391 kts 298°
2026-04-16 15:12 41.69753 -5.75265 29167 ft 390 kts 298°
2026-04-16 15:12 41.72458 -5.81562 29148 ft 390 kts 298°
2026-04-16 15:13 41.75168 -5.87872 29156 ft 390 kts 298°
2026-04-16 15:13 41.77870 -5.94186 29146 ft 390 kts 298°
2026-04-16 15:14 41.80569 -6.00498 29154 ft 390 kts 298°
2026-04-16 15:14 41.83268 -6.06822 29150 ft 391 kts 297°
2026-04-16 15:15 41.85938 -6.13109 29159 ft 390 kts 297°
2026-04-16 15:15 41.88648 -6.19477 29165 ft 390 kts 297°
2026-04-16 15:16 41.91316 -6.25757 29155 ft 389 kts 297°
2026-04-16 15:16 41.93993 -6.32084 29180 ft 389 kts 297°
2026-04-16 15:17 41.96660 -6.38419 29184 ft 390 kts 297°
2026-04-16 15:17 41.99110 -6.44901 29180 ft 387 kts 287°
2026-04-16 15:18 42.00853 -6.51754 29173 ft 388 kts 286°
2026-04-16 15:18 42.02602 -6.58613 29177 ft 387 kts 286°
2026-04-16 15:19 42.04337 -6.65458 29170 ft 386 kts 286°
2026-04-16 15:19 42.06068 -6.72317 29169 ft 386 kts 286°
2026-04-16 15:20 42.07798 -6.79172 29168 ft 386 kts 286°
2026-04-16 15:20 42.09514 -6.86023 28857 ft 385 kts 285°
2026-04-16 15:20 42.10362 -6.89414 28586 ft 382 kts 285°
2026-04-16 15:21 42.11200 -6.92765 28313 ft 380 kts 285°
2026-04-16 15:21 42.12051 -6.96177 28051 ft 377 kts 285°
2026-04-16 15:21 42.12881 -6.99495 27659 ft 372 kts 285°
2026-04-16 15:21 42.13691 -7.02729 27221 ft 368 kts 285°
2026-04-16 15:22 42.14502 -7.05986 26807 ft 365 kts 285°
2026-04-16 15:22 42.15301 -7.09213 26384 ft 362 kts 285°
2026-04-16 15:22 42.16096 -7.12422 25981 ft 359 kts 285°
2026-04-16 15:22 42.16883 -7.15604 25569 ft 355 kts 285°
2026-04-16 15:23 42.17660 -7.18750 25161 ft 352 kts 285°
2026-04-16 15:23 42.18428 -7.21870 24764 ft 349 kts 285°
2026-04-16 15:23 42.19190 -7.24964 24354 ft 346 kts 284°
2026-04-16 15:23 42.19945 -7.28035 23941 ft 343 kts 284°
2026-04-16 15:24 42.20685 -7.31032 23504 ft 340 kts 284°
2026-04-16 15:24 42.21427 -7.34044 23073 ft 336 kts 284°
2026-04-16 15:24 42.22158 -7.37019 22669 ft 332 kts 284°
2026-04-16 15:24 42.22879 -7.39966 22268 ft 329 kts 284°
2026-04-16 15:25 42.23593 -7.42883 21865 ft 326 kts 284°
2026-04-16 15:25 42.24303 -7.45781 21469 ft 324 kts 284°
2026-04-16 15:25 42.25007 -7.48660 21062 ft 321 kts 284°
2026-04-16 15:25 42.25704 -7.51514 20659 ft 319 kts 284°
2026-04-16 15:26 42.26396 -7.54358 20261 ft 318 kts 284°
2026-04-16 15:26 42.27080 -7.57184 19862 ft 316 kts 284°
2026-04-16 15:26 42.27762 -7.60007 19474 ft 316 kts 284°
2026-04-16 15:26 42.28443 -7.62825 19082 ft 315 kts 284°
2026-04-16 15:27 42.29124 -7.65639 18687 ft 315 kts 284°
2026-04-16 15:27 42.29802 -7.68445 18267 ft 314 kts 284°
2026-04-16 15:27 42.30479 -7.71251 17867 ft 313 kts 284°
2026-04-16 15:27 42.31143 -7.74001 17498 ft 310 kts 284°
2026-04-16 15:28 42.31820 -7.76806 17097 ft 309 kts 284°
2026-04-16 15:28 42.32473 -7.79520 16733 ft 307 kts 284°
2026-04-16 15:28 42.33138 -7.82265 16358 ft 306 kts 284°
2026-04-16 15:28 42.33798 -7.84991 15989 ft 304 kts 284°
2026-04-16 15:29 42.34453 -7.87707 15609 ft 304 kts 284°
2026-04-16 15:29 42.35110 -7.90454 15060 ft 309 kts 284°
2026-04-16 15:29 42.35768 -7.93219 14671 ft 308 kts 284°
2026-04-16 15:29 42.36423 -7.95975 14293 ft 307 kts 284°
2026-04-16 15:30 42.37076 -7.98723 13908 ft 307 kts 285°
2026-04-16 15:30 42.37729 -8.01467 13503 ft 305 kts 285°
2026-04-16 15:30 42.38378 -8.04183 13125 ft 303 kts 285°
2026-04-16 15:30 42.39023 -8.06882 12751 ft 300 kts 285°
2026-04-16 15:31 42.39654 -8.09524 12381 ft 298 kts 285°
2026-04-16 15:31 42.40286 -8.12186 11995 ft 296 kts 285°
2026-04-16 15:31 42.40913 -8.14834 11620 ft 294 kts 285°
2026-04-16 15:31 42.41533 -8.17459 11246 ft 292 kts 285°
2026-04-16 15:32 42.42147 -8.20069 10870 ft 290 kts 285°
2026-04-16 15:32 42.42756 -8.22662 10490 ft 289 kts 285°
2026-04-16 15:32 42.43365 -8.25246 10162 ft 285 kts 285°
2026-04-16 15:32 42.43963 -8.27766 9962 ft 277 kts 286°
2026-04-16 15:33 42.44547 -8.30217 9873 ft 273 kts 285°
2026-04-16 15:33 42.45132 -8.32697 9312 ft 277 kts 285°
2026-04-16 15:33 42.45709 -8.35158 8958 ft 273 kts 285°
2026-04-16 15:33 42.46277 -8.37590 8480 ft 274 kts 285°
2026-04-16 15:34 42.46851 -8.40039 8027 ft 273 kts 285°
2026-04-16 15:34 42.47421 -8.42479 7495 ft 271 kts 285°
2026-04-16 15:34 42.47990 -8.44914 6962 ft 271 kts 285°
2026-04-16 15:34 42.48510 -8.47341 6350 ft 266 kts 278°
2026-04-16 15:35 42.48578 -8.49812 5784 ft 258 kts 260°
2026-04-16 15:35 42.48103 -8.52137 5591 ft 256 kts 245°
2026-04-16 15:35 42.47168 -8.54180 5407 ft 257 kts 229°
2026-04-16 15:35 42.45871 -8.55783 5161 ft 250 kts 214°
2026-04-16 15:36 42.44352 -8.56821 4860 ft 239 kts 199°
2026-04-16 15:36 42.42775 -8.57324 4553 ft 226 kts 192°
2026-04-16 15:36 42.41278 -8.57735 4282 ft 214 kts 192°
2026-04-16 15:36 42.39850 -8.58128 4007 ft 205 kts 193°
2026-04-16 15:37 42.38469 -8.58507 3732 ft 202 kts 193°
2026-04-16 15:37 42.37090 -8.58884 3449 ft 203 kts 192°
2026-04-16 15:37 42.35721 -8.59259 3175 ft 197 kts 193°
2026-04-16 15:37 42.34425 -8.59612 2932 ft 185 kts 193°
2026-04-16 15:38 42.33196 -8.59947 2669 ft 175 kts 193°
2026-04-16 15:38 42.32068 -8.60253 2442 ft 157 kts 194°
2026-04-16 15:38 42.31053 -8.60531 2253 ft 143 kts 194°
2026-04-16 15:38 42.30096 -8.60793 2051 ft 139 kts 195°
2026-04-16 15:39 42.29165 -8.61053 1875 ft 135 kts 195°
2026-04-16 15:39 42.28255 -8.61299 1720 ft 132 kts 196°
2026-04-16 15:39 42.27329 -8.61545 1485 ft 134 kts 197°
2026-04-16 15:39 42.26440 -8.61794 1326 ft 129 kts 195°
2026-04-16 15:40 42.25550 -8.62031 1165 ft 128 kts 193°
2026-04-16 15:40 42.24672 -8.62274 992 ft 127 kts 191°
2026-04-16 15:40 42.23821 -8.62508 836 ft 116 kts 192°
2026-04-16 15:40 42.23198 -8.62677 840 ft 64 kts 191°
2026-04-16 15:41 42.22948 -8.62757 840 ft 23 kts 201°
2026-04-16 15:41 42.22830 -8.62845 840 ft 19 kts 216°
2026-04-16 15:41 42.22740 -8.62943 840 ft 14 kts 218°
2026-04-16 15:41 42.22665 -8.63023 840 ft 12 kts 218°
2026-04-16 15:42 42.22627 -8.63048 843 ft 6 kts 192°
2026-04-16 15:42 42.22584 -8.63057 835 ft 7 kts 192°
2026-04-16 15:42 42.22553 -8.63068 836 ft 2 kts 193°
2026-04-16 15:42 42.22537 -8.63075 843 ft 2 kts 213°
2026-04-16 15:43 42.22533 -8.63096 838 ft 2 kts 272°
2026-04-16 15:43 42.22538 -8.63120 843 ft 3 kts 284°
2026-04-16 15:43 42.22543 -8.63151 838 ft 3 kts 283°
2026-04-16 15:43 42.22547 -8.63171 843 ft 0 kts 282°
2026-04-16 15:47 42.22547 -8.63172 843 ft 0 kts 282°